Lid_Strength_Index
5 5 4 4 4 4 4 4 4 4 4 3 2 2 2 2 2 1 1 -1 2 5 4 3 3 4 4 5 8 5 6 5 6 8 9 9 9 9 9 8 10 11 13 13 12 14 17 6 7 12 9 7 8 8
5 5 4 4 4 5 5 5 5 4 3 2 2 2 2 2 2 1 2 -0 -1 2 3 1 1 1 1 2 4 4 6 6 6 7 7 7 9 8 9 13 7 12 9 12 11 12 6 5 6 5 6 7 7 7
5 5 4 5 5 5 5 5 3 3 3 2 2 2 2 2 2 1 0 -0 0 3 3 3 3 1 -0 0 -0 5 4 4 4 3 6 7 10 7 10 11 9 7 6 9 10 8 7 5 5 5 5 6 5 5
5 5 5 5 5 5 4 3 3 3 3 2 2 2 2 2 1 0 0 -1 1 2 6 5 0 1 -0 -0 0 1 2 1 1 3 5 7 9 5 9 8 9 7 7 8 8 7 6 5 5 5 4 5 5 5
5 5 5 5 5 4 4 3 3 3 2 2 2 2 1 0 -0 -1 -1 -1 -1 2 6 5 1 1 0 0 1 1 2 3 4 6 7 8 6 6 6 6 8 6 7 9 10 6 6 6 4 4 4 5 5 5
6 5 6 5 4 4 4 3 3 3 2 2 2 1 -0 -1 -0 -0 2 -1 -1 -0 3 6 2 2 2 1 2 2 2 3 3 5 6 5 4 6 8 10 6 5 5 4 6 4 4 3 3 3 4 4 4 4
6 6 6 5 4 4 3 3 3 3 2 2 1 0 -0 1 -1 2 3 0 0 -1 3 6 6 2 1 2 2 3 2 3 4 5 6 6 6 5 8 11 7 4 4 4 4 3 5 3 4 3 3 3 3 4
6 6 5 4 4 4 3 3 3 2 2 2 0 0 0 1 2 1 -1 -1 -0 2 2 6 7 5 2 4 5 3 5 4 4 5 5 6 6 6 11 7 5 4 4 4 4 4 4 3 2 3 2 3 3 4
6 5 5 4 3 3 3 3 3 2 2 1 1 1 -0 0 1 1 1 -0 -2 1 5 5 9 10 2 5 5 5 4 8 4 6 6 6 9 12 8 6 5 5 5 4 3 3 3 3 3 3 3 3 4 4
6 5 4 4 3 3 3 3 2 2 1 1 2 1 3 1 0 -0 1 2 2 2 3 6 4 8 4 5 7 6 5 8 10 7 5 9 11 6 5 5 4 4 3 3 4 5 4 4 4 3 3 3 3 3
6 5 4 4 3 3 3 3 2 2 1 0 2 3 -0 1 0 2 4 5 5 6 4 5 5 7 3 7 7 5 8 7 10 8 8 9 11 7 4 4 3 3 3 3 2 2 2 2 3 3 3 2 2 3
6 5 4 4 3 3 3 3 2 -0 -0 0 0 -1 -0 2 3 5 6 5 6 8 4 6 6 4 4 3 6 5 8 7 10 5 8 12 8 5 4 4 3 3 3 3 2 3 2 2 2 2 2 2 2 2
5 5 4 4 3 3 3 2 2 1 0 -1 1 3 4 4 10 8 10 9 8 5 4 4 6 5 4 4 5 7 9 9 5 9 12 10 5 4 3 3 3 2 2 2 3 2 2 2 2 2 2 2 1 1
6 5 5 4 4 3 3 2 2 1 0 3 4 10 6 8 7 6 7 6 4 4 4 4 4 5 5 6 6 9 7 6 10 12 13 7 4 3 3 2 2 3 2 3 2 2 2 2 2 2 1 1 2 2
5 5 5 4 4 3 3 2 1 -1 1 4 4 10 7 5 4 4 4 5 4 3 4 4 5 5 6 7 6 7 9 11 11 12 7 5 3 3 3 2 2 3 3 2 2 2 2 2 2 2 1 1 2 1
5 6 4 4 4 3 2 1 -1 -0 1 3 4 6 5 5 5 5 5 5 3 4 3 4 6 7 8 7 9 10 10 13 9 6 4 3 3 3 2 2 2 2 2 2 2 2 2 2 2 2 1 1 1 2
6 3 5 4 4 3 3 0 -0 2 3 4 5 3 4 5 5 4 4 4 2 4 6 5 9 9 6 9 10 7 9 7 5 4 3 2 3 2 2 2 2 2 2 1 1 1 1 1 1 2 2 1 1 1
4 2 4 4 4 1 -1 -0 1 3 5 4 5 4 3 4 3 4 3 3 3 4 4 7 5 8 10 12 11 7 5 3 3 3 3 2 2 2 2 2 1 1 1 1 1 1 1 1 2 2 1 1 1 1
4 4 4 5 4 2 2 1 1 5 4 3 3 3 2 3 2 2 3 2 2 2 3 4 7 8 8 6 6 5 3 4 4 3 2 1 1 1 1 1 2 1 1 1 1 1 1 1 1 1 1 1 1 1
5 5 5 4 3 1 4 2 0 3 5 3 3 3 3 3 2 2 3 2 3 3 5 6 7 5 5 4 3 3 3 2 2 3 3 2 1 1 1 1 2 1 1 1 1 3 1 1 1 1 1 1 1 2
5 3 3 2 1 1 2 2 3 3 3 4 3 3 4 3 4 4 4 2 4 5 5 4 4 3 2 1 1 1 2 2 3 3 3 3 2 2 1 1 1 1 2 2 2 2 2 2 1 1 1 1 1 1
3 4 2 3 4 3 2 1 3 2 3 3 3 4 5 5 6 5 4 5 6 5 3 3 3 2 2 2 2 1 1 1 1 2 4 3 2 2 2 2 2 2 2 2 2 2 1 1 1 1 1 1 1 1
4 3 3 4 6 6 6 1 4 3 5 5 3 5 5 5 3 2 5 4 5 3 2 3 3 2 2 1 1 1 1 1 2 2 1 2 1 1 2 1 1 2 2 1 1 2 2 4 2 1 1 1 1 1
7 4 6 7 6 8 3 4 3 4 4 5 5 6 5 4 3 5 6 5 4 3 2 3 3 3 3 2 3 3 2 2 2 1 1 2 2 1 1 1 1 1 1 1 1 1 1 1 3 1 1 1 1 2
8 8 8 11 6 6 7 6 5 5 7 5 6 6 5 3 6 7 6 4 3 3 3 2 2 3 4 3 3 2 1 2 2 2 1 1 1 2 2 1 1 1 1 2 3 2 2 1 1 1 1 1 2 2
12 8 10 7 6 7 6 7 7 7 6 7 6 4 3 5 7 7 5 4 3 3 2 2 3 3 2 2 2 3 2 0 1 2 1 0 1 2 3 3 3 2 2 2 2 2 1 1 2 2 2 2 6 2
13 9 6 4 4 5 5 4 4 5 6 7 5 6 5 8 8 5 3 2 2 2 1 1 1 1 2 2 1 0 -0 -0 0 1 0 0 -0 -0 1 2 3 2 2 1 1 1 1 2 2 2 2 2 2 2
8 7 8 6 6 4 6 5 6 7 5 4 4 7 7 7 6 3 2 0 0 0 0 0 0 1 1 1 0 0 -0 -0 -0 -0 -0 -0 -1 -1 -0 0 0 8 1 1 1 1 1 2 2 2 2 2 2 2
8 6 6 7 6 6 5 5 5 3 2 3 5 5 5 3 1 2 1 1 -0 0 1 1 1 0 0 -0 0 0 -0 0 1 3 3 2 2 1 -0 -0 0 -0 -0 1 7 5 1 2 2 1 1 2 1 1
8 5 7 7 7 7 4 2 3 2 1 2 2 2 2 2 1 -0 0 1 1 1 1 1 0 1 1 1 1 1 -0 0 0 1 2 2 2 0 -0 -0 -0 -0 -0 -0 0 -0 7 3 2 1 1 1 2 2
6 6 7 6 6 4 2 1 1 2 2 2 2 3 3 2 1 0 -0 -0 0 1 1 1 1 1 1 1 1 2 2 0 -0 -0 -0 -0 -0 -0 -0 -0 -0 -0 -0 0 0 0 1 2 1 2 2 2 2 3
6 7 7 7 5 3 2 3 3 3 3 3 4 3 3 3 4 2 0 -0 0 1 4 2 1 1 0 -0 0 -0 7 -0 -0 -0 -0 -1 -0 -1 -0 0 -0 -0 -0 0 0 1 1 1 2 2 2 2 2 2
5 5 5 5 5 5 3 4 4 4 4 4 4 3 3 4 5 2 -1 -1 -0 0 1 0 -0 -0 -0 -0 -0 -0 4 -1 3 8 8 8 8 5 1 0 0 1 1 0 1 1 1 1 1 1 1 1 2 2